Погода в Долгом Мосте

Россия / Новгородская область     58°16′53″N   32°26′38″E
темп.,
°C
ветер,
м/с
пор.,
м/с
влажн.,
%
обл.,
%
осадки,
мм/ч
давл.,
гПа
погр.,
м
17 мая, пн
пн1700:00+11в119410 0.0 101210
03:00+11вюв22965 0.0 101339
06:00+12вюв269298 0.0 1013143
09:00+19вюв3563100 0.0 1012486
12:00+23юв5748100 0.0 10121807
15:00+24юв4846100 0.0 10102152
18:00+23вюв5105546 0.0 10081258
21:00+18вюв61687100 1.1 1007650
18 мая, вт
вт1800:00+17вюв5169020 0.0 1006590
03:00+16вюв5149491 0.0 1005466
06:00+17юв51389100 0.0 1005477
09:00+20юв51371100 0.0 1005803
12:00+26ююв594999 0.0 10041625
15:00+27ююв4114898 0.0 10042742
18:00+25юв61146100 0.0 10031395
21:00+19вюв3106885 0.0 1004209
19 мая, ср
ср1900:00+19юв5146397 0.0 1004584
03:00+16юв413866 0.6 1003399
06:00+16юв51488100 0.1 1003769
09:00+20ююв6106430 0.2 10041034
12:00+23ююв6104929 0.0 10041993
15:00+23ююв6105299 0.1 10051566
18:00+17ююв5128291 0.9 1004604
21:00+16юв269012 1.1 1006121
20 мая, чт
чт2000:00+14ююв23975 0.0 100654
03:00+12ю119753 0.0 100711
06:00+13сз129795 0.0 1007117
09:00+16ссз2386100 0.0 1006473
12:00+17ссз4584100 0.6 1006494
15:00+16ссз4795100 3.8 1004325
18:00+16ссз2397100 11.0 1003173
21:00+14с51098100 11.9 1002355
21 мая, пт
пт2100:00+14ссв3898100 1.8 1000411
03:00+14вюв3797100 2.0 1000455
06:00+13вюв269822 0.0 999250
09:00+15юв358589 0.3 998703
12:00+14ююв3693100 3.9 998518
15:00+13ю3696100 5.4 999569
18:00+9зюз4898100 1.8 1000563
21:00+8зюз5997100 2.4 1002757